{"data":{"norad_id":43672,"epoch":"2026-09-19T06:32:14.674848Z","epoch_age_seconds":160877,"freshness":"FRESH","line1":"1 43672U 18084B   26262.27239207  .00000877  00000+0  11111-3 0  9992","line2":"2 43672  97.8861  12.6526 0001574  96.8080 263.3313 14.84231123427512","mean_motion":14.84231123,"eccentricity":0.0001574,"inclination_deg":97.8861,"raan_deg":12.6526,"arg_perigee_deg":96.808,"mean_anomaly_deg":263.3313,"bstar":0.00011111,"rev_number":42751,"period_min":97.019930230906,"perigee_km":614.899396048,"apogee_km":617.10115046162,"semimajor_km":6994.1372732548,"source":"CELESTRAK","updated_at":"2026-09-20T09:00:14.366951Z"}}